[ ตารางข้อมูล ] [ Min-Max ] [ วันนี้4 ] [ วันนี้2 ] [ เทียบ3วัน A ] [ เทียบ4วัน B ]   

วันนี้2   [ ◀ ช่วงเก่ากว่า ] [ ช่วงที่ 268 ] [ ช่วงใหม่กว่า ▶ ] [ ล่าสุด ]    [ 3 ชั่วโมง ] [ 6 ชั่วโมง ] [ 12 ชั่วโมง ] [ 24 ชั่วโมง ]   วันนี้2

อุณภูมิตู้ Knockdown4529  ราย 3 ชั่วโมง  ที่วัดได้ ในช่วงวันเวลา 04/04/2026 (03:03) ถึง 04/04/2026 (06:03) 
ความชื้นในตู้ Knockdown4529  ราย 3 ชั่วโมง  ที่วัดได้ ในช่วงวันเวลา 04/04/2026 (03:03) ถึง 04/04/2026 (06:03) 

 
DS18B20SHTC3 
IDDate d/m/Y & Timedata1
สูง
data2
ต่ำ
data3
นอก
temp
pcb
hum
pcb
Time
 8641  04/04/2026 06:01:13  25.9  26.1  23.9  25.9  70.0  06:01 
 8640  04/04/2026 05:56:31  25.9  26.1  24.0  25.9  70.1  05:56 
 8639  04/04/2026 05:51:49  26.0  26.2  23.9  25.7  69.9  05:51 
 8638  04/04/2026 05:47:07  26.0  26.2  24.0  25.9  69.9  05:47 
 8637  04/04/2026 05:42:27  26.0  26.2  24.1  26.0  70.0  05:42 
 8636  04/04/2026 05:37:45  26.1  26.2  24.0  25.9  70.0  05:37 
 8635  04/04/2026 05:33:03  26.1  26.2  24.2  25.9  69.9  05:33 
 8634  04/04/2026 05:28:22  26.1  26.2  24.0  26.1  70.0  05:28 
 8633  04/04/2026 05:23:41  26.1  26.3  23.9  26.1  70.0  05:23 
 8632  04/04/2026 05:18:59  26.1  26.3  24.2  25.9  69.8  05:18 
 8631  04/04/2026 05:14:18  26.1  26.4  24.2  26.1  70.1  05:14 
 8630  04/04/2026 05:09:36  26.2  26.4  24.2  26.1  69.9  05:09 
 8629  04/04/2026 05:04:54  26.2  26.4  24.4  26.1  70.0  05:04 
 8628  04/04/2026 05:00:13  26.2  26.4  24.2  26.0  70.0  05:00 
 8627  04/04/2026 04:55:31  26.2  26.4  24.2  26.1  70.0  04:55 
 8626  04/04/2026 04:50:50  26.2  26.4  24.0  26.1  70.1  04:50 
 8625  04/04/2026 04:46:08  26.2  26.4  24.3  26.4  69.9  04:46 
 8624  04/04/2026 04:41:27  26.2  26.4  24.3  26.1  70.0  04:41 
 8623  04/04/2026 04:36:46  26.2  26.5  24.4  26.2  70.0  04:36 
 8622  04/04/2026 04:32:04  26.3  26.5  24.3  26.4  70.0  04:32 
 8621  04/04/2026 04:27:22  26.3  26.5  24.2  26.2  69.9  04:27 
 8620  04/04/2026 04:22:41  26.4  26.6  24.4  26.3  70.0  04:22 
 8619  04/04/2026 04:17:59  26.4  26.6  24.3  26.4  70.0  04:17 
 8618  04/04/2026 04:13:18  26.4  26.6  24.0  26.5  70.0  04:13 

Data every 5 minute.


ใช้เวลาประมวลผล 0.00266 วินาที